(196095) = 2002 TR119

Discovered at Palomar on 2002-10-03 by NEAT.

Orbit

Orbit type: Main Belt

Note: WebGL enabled browser required.

epoch2023-09-13.0
epoch JD2460200.5
perihelion date2023-03-30.16234
perihelion JD2460033.66234
argument of perihelion (°)31.93969
ascending node (°)254.81191
inclination (°)8.23708
eccentricity0.0463277
perihelion distance (AU)2.9532596
Tisserand w.r.t. Jupiter3.2
ΔV w.r.t. Earth (km/sec)11.0
semimajor axis (AU)3.0967235
mean anomaly (°)30.17479
mean daily motion (°/day)0.18086320
aphelion distance (AU)3.240
period (years)5.45
P-vector [x]0.28295597
P-vector [y]-0.90738419
P-vector [z]-0.31078909
Q-vector [x]0.94911468
Q-vector [y]0.21818223
Q-vector [z]0.22710757
absolute magnitude14.74
phase slope0.15
uncertainty0
referenceMPEC 2024-A55
observations used838
oppositions19
arc length (days)8623
first opposition used2000
last opposition used2023
residual rms (arc-secs)0.73
perturbers coarse indicatorM-v
perturbers precise indicator003Ek
first observation date used2000-04-26.0
last observation date used2023-12-05.0
computer nameMPCLINUX
JD of orbit computation2456639.638571
perihelion JD uncertainty (days)4.3011E-04
argument of perihelion uncertainty (°)8.9727E-05
ascending node uncertainty (°)4.4609E-05
inclination uncertainty (°)6.8698E-06
eccentricity uncertainty 6.8254E-08
perihelion distance uncertainty (AU)1.9806E-07
Minimum Orbit Intersection Distances (in AU)
for orbit epoch: 2460200.5, reference: E2023-XA2
Mercury2.4981
Venus2.23009
Earth1.9399
Mars1.46619
Jupiter1.84056
Saturn5.81956
Uranus15.3146
Neptune26.7074

Observations

852 total observations over interval: 2000 04 26.23170 – 2023 12 05.233093
These data are available for download (format description).

Date (UT) J2000 RA J2000 Dec Magn Location Ref
2000 04 26.23170 13 12 18.21 -17 25 48.2 18.6 R 699 – Lowell Observatory-LONEOS MPS 94684
2000 04 26.25147 13 12 17.39 -17 25 39.5   699 – Lowell Observatory-LONEOS MPS 94684
2000 04 26.27126 13 12 16.58 -17 25 32.5   699 – Lowell Observatory-LONEOS MPS 94684
2000 04 26.29105 13 12 15.72 -17 25 24.9   699 – Lowell Observatory-LONEOS MPS 94684
2002 10 03.38636 01 22 24.42 +19 10 37.0 19.4   644 – Palomar Mountain/NEAT MPS 64045
2002 10 03.40719 01 22 23.48 +19 10 31.3 19.0   644 – Palomar Mountain/NEAT MPS 64045
2002 10 03.43170 01 22 22.39 +19 10 24.6 18.8   644 – Palomar Mountain/NEAT MPS 64045
2002 10 05.26053 01 21 02.34 +19 01 49.1 19.4   704 – Lincoln Laboratory ETS, New Mexico MPS 64045
2002 10 05.27618 01 21 01.67 +19 01 45.4 19.2   704 – Lincoln Laboratory ETS, New Mexico MPS 64045
2002 10 05.29167 01 21 00.99 +19 01 41.2 19.5   704 – Lincoln Laboratory ETS, New Mexico MPS 64045
2002 10 05.30729 01 21 00.28 +19 01 36.4 19.3   704 – Lincoln Laboratory ETS, New Mexico MPS 64045
2002 10 09.24966 01 18 03.52 +18 41 33.3 18.9   704 – Lincoln Laboratory ETS, New Mexico MPS 94684
2002 10 09.26436 01 18 02.83 +18 41 28.8 19.0   704 – Lincoln Laboratory ETS, New Mexico MPS 94684
2002 10 09.27909 01 18 02.12 +18 41 23.7 18.9   704 – Lincoln Laboratory ETS, New Mexico MPS 94684
2002 10 09.29375 01 18 01.44 +18 41 19.2 19.0   704 – Lincoln Laboratory ETS, New Mexico MPS 94684
2002 10 09.30922 01 18 00.74 +18 41 14.2 18.9   704 – Lincoln Laboratory ETS, New Mexico MPS 94684
2002 10 31.21286 01 02 11.72 +16 25 40.2 18.8 R 644 – Palomar Mountain/NEAT MPS 289785
2002 10 31.23390 01 02 10.89 +16 25 31.7 18.9 R 644 – Palomar Mountain/NEAT MPS 289785
2002 10 31.25483 01 02 10.07 +16 25 23.4 18.8 R 644 – Palomar Mountain/NEAT MPS 289785
2002 11 04.08182 00 59 52.84 +16 00 20.6 19.3   644 – Palomar Mountain/NEAT MPS 94684
2002 11 04.09286 00 59 52.45 +16 00 16.3 19.5   644 – Palomar Mountain/NEAT MPS 94684
2002 11 04.10305 00 59 52.10 +16 00 12.2 19.6   644 – Palomar Mountain/NEAT MPS 94684
2002 12 02.19321 00 51 33.95 +13 29 13.9 19.4 R 695 – Kitt Peak MPS 76157
2002 12 02.21765 00 51 33.91 +13 29 08.0 19.6 R 695 – Kitt Peak MPS 76157
2003 12 19.33239 06 36 27.25 +19 11 19.9 19.3   704 – Lincoln Laboratory ETS, New Mexico MPS 94684
2003 12 19.38406 06 36 24.51 +19 11 15.0 19.8   704 – Lincoln Laboratory ETS, New Mexico MPS 94684
2003 12 19.39828 06 36 23.83 +19 11 13.4 19.5   704 – Lincoln Laboratory ETS, New Mexico MPS 94684
2003 12 23.29103 06 33 01.68 +19 05 53.4 19.2   704 – Lincoln Laboratory ETS, New Mexico MPS 94684
2003 12 23.30364 06 33 00.98 +19 05 52.0 19.3   704 – Lincoln Laboratory ETS, New Mexico MPS 94684
2003 12 23.31648 06 33 00.31 +19 05 51.2 19.4   704 – Lincoln Laboratory ETS, New Mexico MPS 94684
2005 03 07.26000 11 04 23.65 -07 00 24.6 18.5   704 – Lincoln Laboratory ETS, New Mexico MPS 127924
2005 03 07.27167 11 04 23.06 -07 00 21.2 19.0   704 – Lincoln Laboratory ETS, New Mexico MPS 127924
2005 03 07.28333 11 04 22.55 -07 00 17.7 19.9   704 – Lincoln Laboratory ETS, New Mexico MPS 127924
2005 03 07.29500 11 04 21.94 -07 00 15.2 19.0   704 – Lincoln Laboratory ETS, New Mexico MPS 127924
2005 03 07.30735 11 04 21.38 -07 00 11.9 19.2   704 – Lincoln Laboratory ETS, New Mexico MPS 127924
2005 03 08.38156 11 03 32.39 -06 55 13.5 18.7 R 703 – Catalina Sky Survey MPS 127924
2005 03 08.38536 11 03 32.26 -06 55 12.2 18.5 R 703 – Catalina Sky Survey MPS 127924
2005 03 08.38912 11 03 32.10 -06 55 11.3 18.9 R 703 – Catalina Sky Survey MPS 127924
2005 03 08.39291 11 03 31.90 -06 55 10.2 18.5 R 703 – Catalina Sky Survey MPS 127924
2005 03 10.22021 11 02 09.40 -06 46 28.0 18.9 R 699 – Lowell Observatory-LONEOS MPS 127924
2005 03 10.24129 11 02 08.42 -06 46 21.1   699 – Lowell Observatory-LONEOS MPS 127924
2005 03 10.26237 11 02 07.42 -06 46 15.8   699 – Lowell Observatory-LONEOS MPS 127924
2005 03 10.28344 11 02 06.45 -06 46 09.0   699 – Lowell Observatory-LONEOS MPS 127924
2005 03 13.23626 10 59 53.76 -06 31 24.9 18.8   703 – Catalina Sky Survey MPS 129044
2005 03 13.24272 10 59 53.48 -06 31 22.4 18.9   703 – Catalina Sky Survey MPS 129044
2005 03 13.24917 10 59 53.13 -06 31 20.5 18.5   703 – Catalina Sky Survey MPS 129044
2005 03 13.25561 10 59 52.87 -06 31 18.7 19.2   703 – Catalina Sky Survey MPS 129044
2005 04 05.19269 10 45 32.86 -04 25 01.1 19.0 R 703 – Catalina Sky Survey MPS 130710
2005 04 05.19992 10 45 32.65 -04 24 58.6 18.7 R 703 – Catalina Sky Survey MPS 130710
2005 04 05.20723 10 45 32.43 -04 24 57.1 18.9 R 703 – Catalina Sky Survey MPS 130710
2005 04 05.21450 10 45 32.15 -04 24 54.9 19.2 R 703 – Catalina Sky Survey MPS 130710
2006 08 11.15396 16 28 05.61 -19 37 44.4 19.7 R 644 – Palomar Mountain/NEAT MPS 175703
2006 08 11.16749 16 28 05.92 -19 37 43.8 19.6 R 644 – Palomar Mountain/NEAT MPS 175703
2006 08 11.18116 16 28 06.22 -19 37 43.1 19.6 R 644 – Palomar Mountain/NEAT MPS 175703
2007 09 05.28899 22 49 16.78 +05 50 38.0 18.6 V 703 – Catalina Sky Survey MPS 215056
2007 09 05.29602 22 49 16.46 +05 50 36.2 18.5 V 703 – Catalina Sky Survey MPS 215056
2007 09 05.30325 22 49 16.06 +05 50 34.2 18.2 V 703 – Catalina Sky Survey MPS 215056
2007 09 05.31050 22 49 15.70 +05 50 31.8 18.4 V 703 – Catalina Sky Survey MPS 215056
2007 09 11.24612 22 44 53.80 +05 22 21.4 18.6 V 703 – Catalina Sky Survey MPS 215056
2007 09 11.25330 22 44 53.52 +05 22 19.9 18.7 V 703 – Catalina Sky Survey MPS 215056
2007 09 11.26049 22 44 53.19 +05 22 18.3 18.6 V 703 – Catalina Sky Survey MPS 215056
2007 09 11.26768 22 44 52.87 +05 22 15.9 18.1 V 703 – Catalina Sky Survey MPS 215056
2007 09 13.23443 22 43 28.15 +05 12 13.7 19.7 R 683 – Goodricke-Pigott Observatory, Tucson MPS 215056
2007 09 13.24784 22 43 27.56 +05 12 08.7 19.2 R 683 – Goodricke-Pigott Observatory, Tucson MPS 215056
2007 09 13.26122 22 43 27.03 +05 12 05.3 20.0 R 683 – Goodricke-Pigott Observatory, Tucson MPS 215056
2007 09 18.21840 22 40 01.78 +04 45 46.5 19.0 R 683 – Goodricke-Pigott Observatory, Tucson MPS 216092
2007 09 18.23180 22 40 01.21 +04 45 43.8 18.6 R 683 – Goodricke-Pigott Observatory, Tucson MPS 216092
2007 09 18.24518 22 40 00.55 +04 45 37.4 19.6 R 683 – Goodricke-Pigott Observatory, Tucson MPS 216092
2007 09 19.21521 22 39 22.17 +04 40 20.9 20.4 R 683 – Goodricke-Pigott Observatory, Tucson MPS 216092
2007 09 19.22862 22 39 21.76 +04 40 14.7 20.4 R 683 – Goodricke-Pigott Observatory, Tucson MPS 216092
2008 10 21.43257 04 33 46.52 +25 10 52.3 19.7 V 691 – Steward Observatory, Kitt Peak-Spacewatch MPS 260539
2008 10 21.45025 04 33 46.08 +25 10 50.3 20.1 V 691 – Steward Observatory, Kitt Peak-Spacewatch MPS 260539
2008 10 21.46792 04 33 45.64 +25 10 48.0 20.4 V 691 – Steward Observatory, Kitt Peak-Spacewatch MPS 260539
2008 10 25.36695 04 32 02.18 +25 02 43.9 19.7 V 691 – Steward Observatory, Kitt Peak-Spacewatch MPS 261391
2008 10 25.38466 04 32 01.65 +25 02 42.0 19.6 V 691 – Steward Observatory, Kitt Peak-Spacewatch MPS 261391
2008 10 25.40236 04 32 01.10 +25 02 39.6 19.5 V 691 – Steward Observatory, Kitt Peak-Spacewatch MPS 261391
2008 10 29.36456 04 29 55.27 +24 53 14.2 20.9 V 691 – Steward Observatory, Kitt Peak-Spacewatch MPS 261391
2008 10 29.38227 04 29 54.62 +24 53 11.5 19.6 V 691 – Steward Observatory, Kitt Peak-Spacewatch MPS 261391
2008 10 29.39998 04 29 53.99 +24 53 08.8 19.5 V 691 – Steward Observatory, Kitt Peak-Spacewatch MPS 261391
2008 11 01.31323 04 28 09.14 +24 45 27.0 20.2   704 – Lincoln Laboratory ETS, New Mexico MPS 263102
2008 11 01.32499 04 28 08.73 +24 45 24.0 20.1   704 – Lincoln Laboratory ETS, New Mexico MPS 263102
2008 11 01.33677 04 28 08.29 +24 45 21.7 20.2   704 – Lincoln Laboratory ETS, New Mexico MPS 263102
2008 11 01.34213 04 28 08.07 +24 45 19.9 18.9 V 703 – Catalina Sky Survey MPS 263102
2008 11 01.34932 04 28 07.93 +24 45 18.2 19.0 V 703 – Catalina Sky Survey MPS 263102
2008 11 01.35655 04 28 07.60 +24 45 18.8 19.1 V 703 – Catalina Sky Survey MPS 263102
2008 11 01.36044 04 28 07.32 +24 45 17.1 19.9   704 – Lincoln Laboratory ETS, New Mexico MPS 263102
2008 11 01.36369 04 28 07.21 +24 45 16.3 18.7 V 703 – Catalina Sky Survey MPS 263102
2008 11 04.30520 04 26 11.56 +24 36 46.1 19.8   704 – Lincoln Laboratory ETS, New Mexico MPS 263102
